www.pogodaiklimat.ru

Погода и климат >> Архив погоды >> Уругвай >> Мерседес


ПОГОДА в Мерседесе

  • Прогноз погоды в Мерседесе
  • Монитор погоды в Мерседесе

АРХИВ ПОГОДЫ в Мерседесе

Время (UTC), дата Ветер
(напр.,м/с)
 
Видим.   Явления Облачность Т
(С)
Тd
(С)
f
(%)
Тe
(С)
Тes
(С)
Комфортность P
(гПа)
Po
(гПа)
Тmin
(С)
Tmax
(С)
R
(мм)
R24
(мм)
S
(см)
18 18.08 Ю 18 15 км 1/1 600 м
[Sc diur, vesp Ci]
+13.6 +4.2 53 +10 +10 1024.5 1022.3
21 18.08 Ю 13 12 км 1/1 600 м
[Sc diur, vesp Ci]
+10.2 +2.8 60 +6 +6 1025.7 1023.5
00 19.08 Ю 3 10 км 1/0
[Cs]
+3.4 +2.0 91 -1 -1 1028.4 1026.1 +3.4 +14.6
03 19.08 ЮВ 4 10 км 6/0
[Cs]
+2.5 +1.1 90 -2 -2 1029.4 1027.2
06 19.08 Ю 3 8000 м дымка 8/0
[Cs]
+2.3 +1.1 92 -2 -2 1030.2 1028.0
09 19.08 Ю 3 8000 м дымка 5/0
[Cs]
+0.3 -0.2 96 -5 -5 1029.3 1027.0
12 19.08 штиль 0 10 км 8/0
[Cs]
+2.8 +0.9 87 +2 +4 1030.7 1028.4 -0.7 +4.0
15 19.08 Ю 3 15 км 8/0
[Ac As Cs]
+8.8 +2.8 66 +7 +12 1030.4 1028.2
18 19.08 Ю 8 15 км 9/0
[Ac As Cs]
+10.8 +1.7 53 +7 +9 1027.9 1025.7
00 20.08 ЮВ 5 10 км 10/0
[Ac As Cs]
+6.4 +2.9 78 +2 +2 1028.6 1026.4 +2.8 +11.0
03 20.08 ЮВ 5 10 км 9/0
[Ac trans Cs]
+4.9 +2.2 83 0 0 1029.7 1027.5
06 20.08 ЮВ 3 10 км 10/0
[Ac As]
+3.9 +1.8 86 0 0 1029.1 1026.9
09 20.08 ЮВ 4 10 км 9/0
[Ac As Cs]
+3.3 +1.9 91 -1 -1 1029.7 1027.4
12 20.08 ЮВ 7 18 км 8/0
[Ac As Cs]
+5.0 +2.3 83 -1 -0 1031.3 1029.1 +2.4 +6.6
15 20.08 В 10 18 км 4/1 300 м
[Sc Ac und]
+11.0 +3.3 59 +7 +8 1031.2 1029.0
18 20.08 ЮВ 9 18 км 4/3 600 м
[Sc Cs]
+13.0 +3.6 53 +10 +11 1029.7 1027.5
21 20.08 ЮВ 8 18 км 6/0
[As op Cs]
+11.1 +4.1 62 +8 +8 1029.8 1027.6
00 21.08 ЮВ 6 10 км 4/0
[Ac As]
+7.2 +3.8 79 +3 +3 1029.4 1027.2 +4.5 +14.0
03 21.08 ЮВ 7 10 км 4/0
[Ac As]
+5.3 +3.1 86 -0 -0 1030.2 1028.0
06 21.08 ЮВ 6 10 км 3/0
[Ac As Cs]
+4.2 +1.9 85 -1 -1 1029.9 1027.7
09 21.08 В 6 10 км ясно +3.6 +1.3 85 -2 -2 1028.4 1026.2
12 21.08 В 8 18 км 4/0
[Cs]
+5.6 +2.0 78 0 +1 1030.2 1028.0 +2.6 +7.6
15 21.08 В 10 20 км 4/0
[Cs]
+11.8 +4.3 60 +8 +9 1029.8 1027.6
18 21.08 В 9 20 км 6/0
[Cs]
+15.0 +4.8 50 +13 +14 1026.7 1024.6
21 21.08 В 5 20 км ясно +13.7 +4.1 52 +12 +12 1026.0 1023.9
00 22.08 В 4 10 км 1/0
[Ci]
+9.8 +4.0 67 +7 +7 1026.5 1024.3 +5.6 +15.6
03 22.08 В 3 10 км 1/0
[Ci]
+7.7 +4.1 78 +5 +5 1026.9 1024.7
06 22.08 ЮВ 4 10 км 4/0
[Ci]
+5.3 +2.6 83 +1 +1 1027.2 1024.9
09 22.08 В 4 10 км 6/0
[Ac und Cs]
+6.1 +3.5 83 +2 +2 1026.5 1024.3
12 22.08 В 6 18 км 10/4 300 м
[Sc Ac As]
+7.0 +4.5 84 +3 +3 1029.2 1026.9 +4.7 +10.0
15 22.08 ЮВ 5 18 км 10/8 300 м
[Sc Ac As]
+9.4 +6.0 79 +6 +6 1030.3 1028.1
18 22.08 ЮЗ 5 18 км 4/0
[Ac lent]
+15.2 +7.6 60 +14 +17 1028.3 1026.1
21 22.08 Ю 3 15 км ясно +15.5 +6.9 57 +15 +15 1027.5 1025.3
00 23.08 штиль 0 15 км 1/0
[Ci fib]
+5.9 +3.5 85 +5 +5 1027.5 1025.2 +5.6 +17.3
03 23.08 штиль 0 15 км 3/0
[Ci fib]
+2.9 +2.0 94 +2 +2 1028.2 1026.0
06 23.08 штиль 0 15 км 1/0
[Ci fib]
+0.7 +0.2 96 -1 -1 1027.0 1024.8
09 23.08 штиль 0 15 км 3/0
[Cs]
-0.2 -0.6 97 -2 -2 1026.8 1024.5
12 23.08 ЮВ 2 6000 м дымка 5/0
[Cs]
+3.6 +2.0 89 +1 +3 1027.3 1025.0 -0.8 +6.8
15 23.08 В 4 15 км 4/0
[Ci sp]
+15.9 +6.2 52 +15 +22 1026.6 1024.4
18 23.08 В 6 15 км 9/0
[Ac und Cs]
+19.0 +4.7 39 +19 +21 1023.9 1021.8
21 23.08 В 5 12 км 9/0
[Ac As Cs]
+16.3 +5.1 47 +15 +16 1023.1 1020.9
00 24.08 В 5 10 км 8/0
[Ac As Cs]
+12.1 +4.5 60 +10 +10 1023.5 1021.3 +3.6 +19.6
03 24.08 В 4 10 км 4/0
[Ac und Cs]
+8.6 +4.7 76 +6 +6 1023.9 1021.7
06 24.08 ЮВ 3 10 км 3/0
[Ac trans Cs]
+6.3 +3.5 82 +3 +3 1023.8 1021.6
09 24.08 В 5 10 км 4/0
[Cs]
+6.8 +4.9 88 +3 +3 1023.4 1021.2
12 24.08 В 5 15 км 9/0
[Ac cast Cs]
+9.4 +6.9 84 +6 +7 1024.5 1022.3 +4.5 +12.2
15 24.08 СВ 7 15 км 9/0
[As trans Ci sp]
+16.3 +10.0 66 +15 +17 1023.8 1021.7
18 24.08 СВ 13 15 км 9/0
[Ac trans Cs]
+19.1 +7.5 47 +18 +18 1021.5 1019.4
21 24.08 В 6 15 км 9/0
[Ac As Cs]
+16.9 +8.7 58 +16 +16 1020.8 1018.7
00 25.08 В 5 10 км 4/0
[Ac As Cs]
+13.4 +7.8 69 +12 +12 1021.2 1019.1 +8.6 +19.7
03 25.08 ЮВ 5 10 км 4/0
[Ac As]
+9.0 +7.1 88 +6 +6 1021.1 1018.9
06 25.08 В 7 10 км 5/0
[Ac As]
+11.3 +8.9 85 +8 +8 1020.2 1018.0
09 25.08 В 5 10 км 5/0
[Ac As]
+10.6 +8.7 88 +8 +8 1020.0 1017.8
12 25.08 В 6 15 км 9/0
[Ac As]
+11.9 +9.4 85 +9 +9 1020.7 1018.5 +8.2 +13.4
15 25.08 В 6 15 км 9/0
[Ac As Cs]
+17.3 +10.8 66 +16 +19 1020.1 1018.0

 

Местоположение метеостанции Мерседес (Уругвай): широта -33.25 долгота -58.06 высота над уровнем моря 17 м.

В архиве по умолчанию представлена погода в Мерседесе за последнюю неделю. Архивные данные за месяц целиком и за предыдущие месяцы, начиная с января 2011 года, Вы можете получить, выбрав интересующий диапазон дат из раскрывающегося списка и нажав кнопку "Ввод!".


*Определитесь, кто Вы:
робот инопланетянин человек

Внимание! Время в таблицах - всемирное. Для получения местного времени необходимо прибавить поправку, которая равна 0 ч.

Смотрите также архив погоды в соседних городах и на ближайших метеорологических станциях:

Погода в Гуалегуайчу (Аргентина) (58 км)
Погода в Янге (Уругвай) (75 км)
Погода в Пайсанду (Уругвай) (102 км)
Погода в Колонии (Уругвай) (135 км)
Погода в Дурасно (Уругвай) (145 км)
Погода в Буэнос-Айресе (Аргентина) (149 км)
Погода в Буэнос-Айресе (Аргентина) (153 км)
Погода в Пасо-де-лос-Торосе (Уругвай) (153 км)
Погода в Эсейсе (Аргентина) (179 км)
Погода в Ла-Плате (Аргентина) (191 км)

Пояснения к столбцам:

Ветер - указаны скорость ветра в м/с - средняя за 10 мин, порывы в срок и между сроками (в фигурных скобках) и направление, откуда дует ветер: С - северный, СВ - северо-восточный, В - восточный, ЮВ - юго-восточный, Ю - южный, ЮЗ - юго-западный, З - западный, СЗ - северо-западный.
Видимость - горизонтальная дальность видимости в метрах или километрах. При видимости от 1 до 10 км при отсутствии осадков обычно наблюдается дымка, при ухудшении видимости до 1 км и менее - туман. В сухую погоду видимость может ухудшаться дымом, пылью или мглою.
Явления - указаны атмосферные явления, наблюдавшиеся в срок или в последний час перед сроком; фигурными скобками обозначены явления, наблюдавшиеся между сроками (за 1-3 часа до срока); квадратными скобками обозначены град или гололедные отложения с указанием их диаметра в мм.
Облачность - указаны через наклонную черту общая и нижняя облачность в баллах и высота нижней границы облаков в метрах; квадратными скобками обозначены формы облаков: Ci - перистые, Cs - перисто-слоистые, Cc - перисто-кучевые, Ac - высококучевые, As - высокослоистые, Sc - слоисто-кучевые, Ns - слоисто-дождевые, Cu - кучевые, Cb - кучево-дождевые. Подробнее классификацию облаков см. в Атласе облаков (PDF).
T - Температура воздуха - температура, измеренная на высоте 2 м над землей.
Td - Температура точки росы - температура, при понижении до которой содержащийся в воздухе водяной пар достигнет насыщения.
f - Относительная влажность воздуха - влажноcть воздуха, измеренная на высоте 2 м над землей.
Te - Эффективная температура - температура, которую ощущает одетый по сезону человек в тени. Характеристика душности погоды. При расчете учитывается влияние влажности воздуха и скорости ветра на теплоощущения человека.
Tes - Эффективная температура на солнце - температура, которую ощущает человек, с поправкой на солнечный нагрев. Характеристика знойности погоды. Зависит от высоты солнца над горизонтом, облачности и скорости ветра. Ночью, в пасмурную погоду, а также при ветре 12 м/с и более поправка равна нулю.
P - Атмосферное давление - приведенное к уровню моря атмосферное давление.
Po - Атмосферное давление - измеренное на уровне метеостанции атмосферное давление.
Tmin - Минимальная температура - минимум температуры воздуха на высоте 2 м над землей.
Tmax - Максимальная температура - максимум температуры воздуха на высоте 2 м над землей.
R - Количество осадков - Количество выпавших осадков за период времени, мм. При наведении курсора мыши на число - период времени, за который выпало указанное количество осадков.
R24 - Количество осадков - Количество выпавших осадков за 24 часа, мм.
S - Снежный покров - Высота снежного покрова, см. При наведении курсора мыши на число - состояние снежного покрова и степень покрытия местности в баллах.